Powrót do katalogu

STARLINK-33701

AktywnyŁącznośćVLEO
NORAD 63464·PAYLOAD·🇺🇸 United States

Wystrzelony Apr 6, 2025 z Cape Canaveral Space Force Station

Loading…

Następne Przeloty (najbliższe 24 godziny)

TLE

ŚwieżeSource: CelesTrak SupGP

Epoka: Sep 14, 2026, 21:40 UTC

1 63464C 25070E   26257.90326389  .00021747  00000+0  78783-3 0  2572
2 63464  42.9997 271.6072 0001465 264.9123 315.0533 15.27560569    10

Śledź STARLINK-33701 w czasie rzeczywistym z AllMySat

Download on the App Store